{"data":{"norad_id":63860,"epoch":"2026-09-19T18:31:36.367680Z","epoch_age_seconds":209906,"freshness":"STALE","line1":"1 63860U 25093AA  26262.77194870  .00011797  00000+0  43731-3 0  9998","line2":"2 63860  43.0042  61.8826 0002292 268.4587  91.6002 15.27596880 77658","mean_motion":15.2759688,"eccentricity":0.0002292,"inclination_deg":43.0042,"raan_deg":61.8826,"arg_perigee_deg":268.4587,"mean_anomaly_deg":91.6002,"bstar":0.00043731,"rev_number":7765,"period_min":94.265707062717,"perigee_km":481.42597944409,"apogee_km":484.57112398099,"semimajor_km":6861.1355517125,"source":"CELESTRAK","updated_at":"2026-09-21T09:00:35.136180Z"}}